SHIJIAN-20 (SJ-20)

Last updated on Sun Jun 21 2026 00:03:08 GMT+0000 (Coordinated Universal Time)

1 44910U 19097A 26171.26850186 .00000130 00000+0 00000+0 0 9999 2 44910 4.9274 75.0271 0014829 52.9458 281.9613 1.00266805 23727
UTC large
Height (km)
Speed (km/s)
/
Latitude / Longitude
Inclination (degrees)
Orbital Period (minutes)
Azimuth
Elevation
Range (km)
Doppler Factor

Next 0 passes for location: London (51.5072 / 0.1276)

No passes found over London.
SHIJIAN-20 (SJ-20)